Wind_Speed
12 10 8 6 4 3 3 2 2 3 3 4 4 4 3 3 4 4 4 4 4 5 6 7 8 8 9 10 10 10 10 10 10 10 10 10 10 11 11 12 13 13 14 14 14 15 15 15 15 16 16 16 16 16 15 15 16 16 17 18 19 20 20 20 20 19 18 16 14 13 12 12 11 9 8 7 7 6 7 8 9 9 9 10 10
17 15 13 11 9 7 6 5 4 3 3 4 4 4 4 4 3 4 5 5 3 3 4 4 4 5 7 7 7 8 8 8 8 8 8 8 8 8 9 9 10 11 12 12 13 13 13 14 14 14 14 14 15 15 15 16 16 17 18 18 19 20 21 21 20 20 19 18 16 15 15 14 14 13 12 10 10 10 10 11 12 13 12 11 11
21 19 17 15 14 12 10 8 7 7 6 6 5 5 5 5 4 5 6 6 6 4 4 4 4 4 4 5 6 6 6 6 6 6 7 7 8 8 8 8 9 9 10 10 11 11 12 12 12 13 13 13 13 14 14 15 16 18 18 19 20 21 20 21 21 20 20 20 19 18 18 17 17 17 16 14 14 13 12 13 13 10 10 13 13
25 22 21 19 17 15 14 12 11 10 9 8 7 7 6 5 6 6 6 7 7 7 6 5 4 4 3 3 4 5 5 6 6 6 6 6 7 8 9 9 9 9 10 10 10 10 10 11 12 12 13 13 14 14 14 15 16 18 18 19 20 20 20 20 20 20 20 20 20 20 20 19 19 19 18 17 17 16 14 13 12 10 11 14 14
27 25 24 21 19 18 17 16 15 13 12 11 10 9 8 7 7 7 7 7 7 7 7 7 6 6 5 4 4 4 4 5 6 6 6 6 7 7 8 8 9 9 9 9 9 9 10 10 11 12 13 14 15 15 16 16 16 17 17 18 18 19 19 19 20 20 20 20 21 20 20 20 19 19 19 18 18 17 16 14 13 13 13 13 13
30 28 26 24 21 21 21 21 19 17 16 14 13 12 11 10 9 9 8 9 8 8 8 8 8 8 7 7 6 6 6 6 6 7 7 7 7 7 6 6 7 7 7 8 8 9 9 10 11 11 12 13 15 16 16 16 16 16 16 16 17 18 18 19 19 20 20 20 20 20 19 20 20 19 19 19 19 19 18 17 16 15 14 13 13
33 31 28 26 23 21 22 23 23 22 20 18 16 15 14 13 12 11 11 11 11 10 9 9 10 10 10 9 8 7 7 7 6 8 9 8 7 7 6 5 5 5 5 6 7 8 9 10 11 12 12 13 13 14 15 15 14 14 14 14 15 15 16 17 18 19 19 19 19 19 19 19 19 19 19 20 20 20 20 19 19 18 17 17 16
35 33 31 28 24 21 22 23 24 24 23 22 20 18 17 15 15 14 14 14 14 13 13 12 12 12 12 11 10 9 8 8 7 8 9 9 8 8 8 7 6 5 4 5 6 7 8 9 11 12 13 13 13 13 14 15 14 13 13 13 13 13 14 15 16 17 18 17 17 17 17 17 18 18 19 20 20 21 21 21 21 20 19 19 18
38 36 34 31 26 23 23 23 24 25 26 25 24 22 20 18 17 17 17 17 16 16 16 16 16 16 15 13 12 11 11 10 8 8 9 9 8 9 9 10 10 9 7 5 5 5 7 8 10 12 13 14 14 14 13 14 13 13 12 12 12 11 11 12 13 14 14 15 15 15 15 16 16 17 18 19 20 20 21 21 21 21 20 20 20
39 38 36 34 30 27 25 25 24 26 27 27 26 24 23 22 21 20 20 20 19 19 19 19 20 20 20 18 16 14 13 13 11 10 9 8 8 8 8 9 10 11 10 9 8 6 6 6 8 10 12 14 15 15 13 12 11 11 10 10 11 10 10 9 9 10 11 12 12 13 13 14 15 16 17 17 18 19 19 19 19 19 19 19 19
41 39 38 36 34 31 29 27 27 27 28 28 27 26 25 25 25 24 24 24 25 25 25 24 23 23 23 24 22 19 18 17 15 13 11 9 9 9 8 8 9 11 11 11 11 10 8 7 6 7 10 12 13 14 14 13 11 9 8 8 8 8 7 6 6 6 7 8 9 9 10 11 13 14 15 16 16 17 17 17 17 17 17 16 16
46 42 40 38 37 35 33 31 29 28 29 29 29 29 28 28 27 27 27 28 29 29 30 29 27 26 26 27 27 25 25 22 19 17 15 13 12 11 11 11 10 11 12 12 12 12 11 10 8 7 8 10 11 11 13 13 12 10 8 7 6 6 5 4 3 3 3 4 5 6 7 8 9 10 11 12 13 13 13 14 13 13 13 13 13
52 48 44 41 39 38 36 35 33 32 31 31 32 33 33 32 31 30 29 30 31 31 32 32 31 29 29 29 29 29 29 26 23 22 20 18 16 15 14 15 14 14 13 12 12 13 14 13 11 9 8 9 11 12 12 13 12 11 9 7 6 5 5 4 2 1 1 1 1 2 3 4 6 7 7 8 8 9 9 9 9 9 9 9 9
56 51 46 43 41 40 38 38 37 36 35 35 36 38 38 37 36 34 31 30 31 32 34 34 33 33 32 32 32 33 32 28 26 26 24 23 21 19 17 17 17 17 17 15 13 13 15 15 14 13 12 11 11 12 13 12 12 12 11 9 7 6 6 6 4 2 1 1 2 2 3 3 4 4 5 5 5 5 5 5 5 5 4 4 4
59 55 50 46 44 43 41 42 43 43 42 42 42 42 42 41 40 38 35 33 32 33 34 35 35 34 33 33 35 36 34 32 30 29 28 27 25 22 21 20 20 20 19 19 18 16 15 15 14 15 16 14 12 13 13 12 12 12 12 10 9 7 6 5 5 4 3 3 3 4 5 6 6 7 7 6 6 5 5 4 4 3 3 2 1
63 60 58 54 51 49 48 49 51 50 50 49 48 46 46 44 41 40 38 35 34 33 34 37 37 37 36 36 38 39 36 34 33 33 32 30 29 26 25 24 24 23 22 21 21 20 19 18 16 16 17 16 14 15 16 14 13 12 12 11 10 9 7 6 5 5 5 4 5 5 6 7 8 8 9 10 9 9 8 7 7 7 6 6 7
67 65 63 60 57 54 51 50 51 51 52 52 49 48 47 45 44 42 40 38 35 32 33 36 39 40 39 37 40 43 40 36 36 36 35 34 32 30 29 28 29 28 26 25 24 25 24 22 20 19 19 18 18 19 19 17 15 14 13 12 11 10 9 7 7 6 5 4 5 5 7 8 9 10 11 11 11 11 10 9 9 9 9 9 11
72 71 69 66 62 58 56 54 52 51 52 52 50 48 48 48 47 45 42 40 36 31 32 37 43 46 43 39 42 45 42 39 40 40 39 37 35 33 32 32 32 31 31 30 30 30 29 26 25 24 22 21 21 21 21 20 19 17 16 15 13 12 10 10 10 9 7 5 5 6 6 8 9 10 12 13 13 13 12 12 11 11 11 12 14
77 76 75 73 70 67 65 64 60 57 55 54 52 51 51 52 51 47 44 42 38 33 34 40 47 50 47 43 44 46 44 42 41 41 41 40 38 36 36 35 34 34 34 34 34 34 32 29 29 27 24 23 24 24 23 22 21 19 18 18 16 14 13 13 12 12 10 8 7 8 8 7 8 10 12 13 14 14 14 14 13 12 12 14 15
80 79 78 76 74 73 72 71 68 64 60 57 54 52 52 53 53 49 45 43 40 38 38 41 48 51 49 47 47 47 47 46 45 44 44 42 41 40 38 38 36 36 37 38 37 37 35 33 32 30 27 27 29 28 26 24 23 21 20 19 18 17 16 15 14 14 12 9 8 8 8 7 8 10 12 12 13 14 14 14 14 15 16 16 17
83 82 80 78 77 76 75 74 71 68 64 61 58 55 54 55 53 49 47 44 43 43 44 45 50 54 53 52 52 50 50 51 50 49 48 46 44 43 42 40 40 40 42 41 39 38 38 37 36 33 31 32 32 31 30 29 28 26 24 22 21 20 18 17 16 16 15 13 11 10 10 10 10 11 13 13 13 13 13 13 14 17 21 22 21
85 84 83 81 78 77 76 76 74 71 68 67 65 61 58 57 53 49 47 48 48 50 51 52 55 57 56 56 55 53 53 54 54 54 53 50 49 47 46 45 44 44 45 44 42 41 41 41 39 36 34 35 36 35 34 33 32 31 30 28 27 26 24 21 19 18 18 17 15 13 12 12 11 11 12 13 14 14 14 13 14 16 21 24 24
88 86 85 83 80 77 77 78 77 75 72 72 72 69 64 61 57 54 53 52 52 54 56 58 59 60 59 58 57 56 55 56 57 57 56 54 52 51 50 50 50 49 48 47 46 46 45 45 45 42 39 37 38 38 38 38 37 35 34 33 33 32 31 29 26 24 22 22 21 20 19 19 18 17 17 17 17 17 17 16 16 16 19 22 24
91 89 88 86 84 82 82 82 81 80 78 77 77 75 72 70 67 65 62 60 57 57 59 61 63 63 63 62 61 61 59 58 59 60 60 58 57 55 54 54 53 52 51 50 50 49 49 49 49 47 45 43 42 41 41 42 42 40 39 38 37 37 36 35 34 33 31 30 30 30 30 30 30 29 27 26 24 23 23 22 21 20 20 22 24
92 91 90 89 88 87 87 86 85 83 82 81 80 79 78 77 74 70 66 65 62 62 63 64 66 68 69 68 67 66 65 64 63 62 63 63 61 60 59 58 56 54 53 53 53 52 51 52 51 50 49 48 48 47 46 45 45 45 44 43 43 42 41 40 39 39 39 38 39 39 39 39 39 37 35 33 31 30 29 29 28 27 26 27 27
92 92 91 90 90 90 90 89 88 86 84 83 81 80 80 78 75 70 67 66 66 67 68 68 68 70 72 73 72 71 70 69 67 65 65 65 65 64 64 63 61 59 57 55 55 55 54 53 52 51 51 51 52 52 51 49 49 48 48 48 48 47 46 45 44 44 43 44 44 45 45 45 45 44 42 40 38 36 35 34 34 33 33 33 33
92 91 91 91 91 92 92 91 90 88 87 84 83 82 81 78 75 72 70 69 69 70 71 71 71 72 74 75 75 75 74 72 69 68 67 68 67 67 66 66 65 64 62 60 59 58 57 56 54 53 53 54 55 55 55 54 53 53 53 53 53 53 52 50 49 48 48 48 48 48 49 49 50 49 48 47 44 42 41 39 39 38 38 38 39
92 92 91 91 91 92 92 92 91 90 89 87 85 85 83 80 77 76 74 72 72 73 73 74 75 75 76 76 76 75 75 74 72 70 70 70 70 70 69 68 68 67 66 65 64 63 62 61 59 57 56 56 58 59 60 60 59 59 59 58 57 57 56 55 54 53 52 52 52 52 52 52 53 53 53 52 51 49 47 46 45 45 45 45 46
95 94 92 91 91 91 91 91 91 91 90 89 88 87 85 83 82 80 78 75 75 76 76 77 78 78 77 76 76 75 75 75 75 74 74 73 73 73 73 72 72 71 70 69 68 67 67 66 64 62 60 60 61 63 65 66 67 66 65 64 63 62 61 60 58 57 56 56 55 56 56 56 56 57 57 57 57 55 54 53 53 53 53 53 53
97 96 95 94 93 92 92 91 91 91 91 90 90 89 88 86 85 84 82 80 79 79 80 79 80 81 80 79 78 78 77 77 76 76 76 76 75 74 74 74 74 75 74 73 72 71 71 70 69 68 67 66 66 66 69 71 72 72 71 70 68 67 65 64 62 61 60 59 59 59 59 59 59 60 61 62 62 61 60 60 60 60 60 60 60
98 98 98 97 96 95 94 93 92 91 91 90 90 90 89 88 87 86 85 83 82 83 84 84 84 84 84 84 82 81 80 79 78 78 78 77 76 76 76 76 76 77 77 78 77 77 77 75 74 73 72 72 73 73 74 75 76 77 76 75 73 71 70 68 66 64 63 62 62 62 63 63 63 64 64 65 66 66 66 66 66 66 66 66 66
99 99 99 99 98 97 97 96 95 94 93 92 91 91 91 90 90 89 89 88 87 87 88 88 89 88 88 87 86 84 83 82 82 81 81 80 80 80 80 81 81 81 82 82 82 82 82 81 80 79 79 79 80 81 81 81 81 81 81 80 79 77 75 73 71 70 68 67 66 66 65 65 66 67 68 69 70 71 71 71 71 71 71 72 72
98 98 99 99 100 100 99 99 98 98 97 95 94 93 93 93 93 92 92 91 91 91 91 92 93 94 93 93 91 89 88 86 85 84 84 84 85 86 86 86 86 86 86 87 86 86 87 87 86 86 85 85 86 86 86 86 86 85 85 86 85 83 82 81 79 77 74 73 72 71 71 71 71 72 74 76 77 77 77 78 78 78 78 78 78
100 99 98 98 99 99 100 100 100 100 100 99 98 97 96 96 95 95 95 95 94 94 95 95 96 97 98 98 97 96 94 93 91 89 88 87 87 87 87 88 89 89 90 90 90 90 90 91 91 91 91 90 90 89 90 90 91 90 90 90 90 89 88 88 87 85 83 81 80 79 78 78 80 82 83 83 84 85 85 86 86 85 85 85 85
104 103 101 100 99 99 99 100 100 101 101 101 101 100 100 99 98 97 97 97 97 97 98 98 99 99 100 101 101 101 101 100 100 99 98 97 95 94 92 91 90 90 90 91 92 93 93 93 94 94 94 94 93 93 93 93 93 93 93 93 93 93 92 92 92 93 92 91 90 90 89 90 91 93 93 93 92 92 92 92 92 91 91 91 90
108 107 106 104 103 101 100 100 100 100 101 101 101 101 102 102 101 101 100 99 99 99 100 101 101 102 103 103 104 104 105 105 105 105 105 104 104 103 102 100 98 96 94 93 93 93 93 94 95 95 95 95 95 95 94 94 94 94 94 95 96 96 96 96 97 97 98 99 99 98 98 98 99 100 101 100 99 99 99 98 97 97 96 97 97
111 110 109 108 107 106 104 102 101 100 100 100 101 102 103 103 103 103 103 103 102 102 102 102 103 104 105 106 107 107 108 108 108 108 108 107 106 106 105 105 104 104 102 100 98 96 95 94 94 95 95 95 95 95 94 94 94 94 95 95 96 97 98 99 100 101 102 103 103 103 103 103 103 104 105 105 104 104 103 103 102 101 102 103 104
114 113 112 111 110 109 108 106 104 102 101 100 100 101 102 103 104 105 105 105 105 105 105 105 104 105 106 107 109 110 111 111 111 111 111 110 109 109 108 108 107 107 107 107 106 104 103 101 99 98 97 97 96 96 96 96 96 96 96 97 98 98 99 101 102 103 104 104 104 105 105 105 106 106 106 107 107 107 106 106 105 105 106 109 110
116 115 115 114 112 112 111 109 107 105 103 102 101 100 100 101 102 104 105 106 107 107 107 107 107 107 107 108 108 109 111 112 113 113 113 113 112 112 112 112 111 111 111 111 111 110 110 108 107 106 105 104 104 103 103 102 102 102 101 101 102 102 103 103 104 105 106 106 107 108 109 109 110 110 111 111 111 111 111 111 111 111 113 116 117
115 115 115 115 115 114 114 112 110 108 106 105 105 104 103 102 101 101 102 104 105 107 108 108 109 109 109 110 110 110 111 112 113 114 115 115 115 115 115 115 116 116 116 116 116 116 116 115 115 115 114 113 112 112 111 110 110 109 109 110 110 111 112 112 112 112 113 113 114 115 117 118 118 118 117 117 117 117 117 118 119 121 124 126 126
114 114 114 114 114 115 115 114 113 111 109 108 107 107 106 105 103 102 102 102 103 104 106 108 109 110 111 111 111 112 112 112 113 114 115 116 117 117 118 119 119 120 121 121 121 121 122 122 122 122 122 122 121 121 120 119 118 117 117 117 118 119 120 121 121 122 123 124 125 125 125 126 126 127 127 126 126 126 127 128 130 132 134 134 133
115 114 114 113 112 112 112 112 112 111 111 110 110 110 109 108 107 106 106 105 104 103 104 105 107 108 110 112 113 113 114 114 115 116 116 117 118 118 119 120 121 123 124 125 125 126 126 127 127 128 128 128 128 128 128 128 128 128 127 127 127 127 128 129 131 133 135 137 137 137 136 136 136 137 137 138 138 138 138 139 139 139 139 138 137
116 116 115 114 113 112 111 110 110 110 109 109 110 110 110 110 110 110 110 110 109 109 108 107 107 107 108 109 110 111 112 114 115 117 118 119 119 120 121 121 122 123 125 126 127 128 130 131 132 132 133 133 134 134 135 135 136 137 137 137 138 138 139 140 141 142 143 143 143 142 142 142 143 143 143 143 143 143 143 143 142 142 141 140 139
118 118 117 116 115 114 114 112 111 111 110 110 110 110 109 109 110 110 110 110 111 111 111 111 112 112 112 111 112 113 113 114 115 117 118 119 120 121 122 123 124 125 126 127 128 129 130 132 133 134 136 137 137 138 139 140 140 141 142 142 143 143 144 144 145 146 146 146 145 145 145 145 145 145 145 145 145 144 144 143 143 142 142 141 140
119 120 119 118 117 117 116 115 115 114 114 113 113 113 112 112 112 112 112 112 112 111 111 111 112 113 114 114 114 115 115 115 115 116 118 119 120 121 122 123 124 126 127 127 129 130 131 132 133 134 135 136 137 139 140 140 141 142 142 143 143 144 144 145 146 146 146 145 145 145 145 145 145 145 145 145 145 145 144 144 144 144 143 143 142
119 120 120 119 119 118 117 117 116 116 115 115 114 114 114 114 114 114 114 114 114 114 114 114 114 114 115 115 115 116 116 116 117 117 119 120 121 123 123 124 125 126 127 128 129 130 131 132 133 134 135 136 137 138 139 140 140 141 142 142 143 143 144 145 145 145 145 146 146 146 146 146 146 147 147 147 147 146 146 146 146 145 145 145 144
120 120 121 120 120 119 118 117 117 116 115 115 114 113 113 113 113 113 113 113 113 113 113 113 114 114 115 116 117 118 118 119 119 119 120 121 122 123 124 125 127 128 129 130 130 131 132 133 134 134 135 136 137 138 139 140 140 141 142 142 143 143 144 145 145 145 145 146 146 146 146 147 147 147 147 147 147 147 147 147 147 147 146 146 146
120 120 121 121 120 120 119 118 117 116 115 115 114 114 113 113 113 112 112 112 112 112 112 112 112 113 113 114 115 116 117 118 118 119 120 121 121 122 123 125 126 127 129 130 131 132 133 134 135 136 137 137 138 139 140 141 142 143 144 144 145 145 146 146 147 147 147 147 147 148 148 148 148 148 148 149 149 149 148 148 148 148 148 148 148
120 120 120 120 120 120 119 119 118 116 116 115 114 114 113 113 113 112 112 111 111 110 111 111 111 112 112 113 113 114 115 115 116 116 117 118 119 120 121 122 123 125 126 127 129 130 131 133 134 135 136 137 139 140 141 142 144 145 146 147 147 148 148 149 149 149 150 150 150 150 150 151 151 151 151 151 151 151 151 151 150 150 150 150 149
121 121 121 121 120 120 120 119 119 118 117 116 115 114 114 113 113 112 112 111 110 110 110 110 110 110 110 110 110 111 111 112 113 113 114 115 116 117 118 119 120 121 122 123 125 126 128 129 130 132 133 135 136 138 139 141 142 144 145 146 147 148 148 149 149 150 150 151 151 152 152 152 152 153 153 153 153 153 153 152 152 152 152 151 151
123 123 123 122 122 122 121 121 120 120 119 118 117 116 115 115 114 113 113 112 111 110 110 110 110 110 110 110 110 110 110 110 111 111 111 112 113 114 115 116 117 118 119 120 122 123 124 125 127 128 130 132 133 135 137 138 140 141 142 143 144 145 146 146 147 147 148 149 149 149 150 150 150 151 151 151 151 151 151 151 151 150 150 149 148
Wind_Direction
223 230 237 244 262 292 318 335 350 355 350 348 349 346 351 13 12 0 357 9 26 36 45 49 47 48 53 59 63 64 62 60 59 59 59 59 59 59 60 60 59 58 57 56 54 53 52 50 50 50 50 49 48 45 44 43 43 44 46 47 48 50 52 52 51 51 51 50 48 44 40 39 40 39 38 33 29 33 42 51 45 30 31 40 31
221 226 235 242 250 261 277 288 293 301 310 316 324 327 328 330 337 334 329 324 330 351 13 25 28 32 38 43 50 56 58 55 52 50 48 46 46 46 47 48 50 51 51 50 48 46 44 43 41 40 41 43 43 41 39 38 37 38 39 40 43 47 48 49 49 49 50 50 50 47 44 43 42 41 41 40 39 44 52 58 49 34 34 48 45
225 225 231 239 245 252 258 266 274 281 287 290 298 306 313 316 312 312 316 315 309 311 324 338 346 359 14 21 25 31 39 43 43 40 38 35 33 32 31 32 33 36 38 39 39 38 35 33 31 29 28 29 32 33 34 33 33 34 34 35 38 42 43 44 46 47 48 49 50 50 48 46 45 44 43 42 40 44 52 60 61 51 45 55 56
229 228 230 234 240 248 253 257 262 271 280 282 285 292 298 295 290 291 297 303 303 303 306 311 316 321 332 344 351 359 7 16 19 22 22 25 28 28 25 23 22 20 21 23 22 22 22 20 19 18 17 16 19 22 26 28 30 32 31 32 34 38 39 41 42 44 46 47 49 50 49 49 49 47 47 47 45 45 49 56 66 70 64 66 69
230 229 230 231 236 245 250 254 256 259 269 276 277 280 282 277 277 282 283 282 283 287 293 299 300 300 302 307 311 317 328 342 353 356 358 4 12 20 23 21 19 17 13 11 10 7 5 4 5 7 8 8 9 12 17 22 26 28 29 30 32 35 37 38 40 42 44 45 46 47 49 51 51 51 50 51 50 49 50 51 55 62 66 70 74
230 231 232 234 240 246 248 251 252 253 259 265 266 267 270 270 273 277 275 269 268 269 278 287 289 288 285 284 290 297 299 308 321 327 331 339 351 2 13 15 16 16 13 12 8 4 359 357 356 358 360 2 4 6 11 17 21 22 24 27 28 31 35 37 38 40 43 46 47 48 50 51 51 52 52 52 53 53 55 56 56 58 62 63 64
232 233 234 237 243 248 248 247 248 252 255 257 257 257 259 262 265 270 273 272 269 267 269 273 277 279 278 276 276 281 290 299 304 305 309 315 320 327 337 347 356 0 4 10 13 12 9 5 3 1 358 358 1 3 7 12 16 17 17 21 25 27 31 35 38 40 42 46 49 49 50 52 53 53 54 55 57 58 59 59 60 61 63 65 65
231 233 235 238 244 249 250 247 246 250 254 254 253 251 252 255 259 264 269 273 272 271 270 270 271 271 271 273 274 273 275 285 292 299 308 312 302 295 301 309 316 323 335 353 8 13 14 15 15 13 8 3 2 3 6 8 12 11 10 12 18 24 29 33 38 40 41 45 50 52 54 57 57 58 59 60 61 62 62 62 62 63 64 66 68
230 232 235 238 244 249 251 250 247 248 250 251 251 252 252 255 258 260 263 265 268 270 271 272 272 270 267 266 267 268 270 277 285 291 300 308 302 293 294 295 298 302 305 314 335 354 5 13 16 16 15 12 9 7 6 7 7 7 4 4 7 14 23 31 38 42 44 47 53 57 60 63 65 65 65 65 65 65 66 66 66 66 67 69 70
231 233 235 239 243 246 250 252 251 250 250 249 248 249 252 255 259 261 261 260 260 261 264 268 271 272 272 271 268 267 268 273 278 279 283 292 295 298 297 290 291 298 300 299 304 310 325 349 6 10 11 11 9 7 7 6 6 5 2 359 359 2 11 24 36 44 48 51 57 63 66 70 74 75 74 74 73 72 72 72 72 71 71 71 72
233 234 237 240 242 244 246 250 254 254 253 251 249 249 251 253 257 262 263 262 262 262 261 263 267 270 272 274 273 269 267 271 273 270 272 277 279 284 287 285 292 301 303 299 297 297 300 309 326 348 359 1 359 360 1 1 1 2 0 356 353 351 356 12 32 46 52 58 64 69 75 82 86 86 84 83 82 81 80 80 79 78 77 76 74
235 237 238 240 243 244 245 248 253 256 257 256 253 253 253 254 258 265 269 270 270 269 267 266 269 272 272 273 274 271 269 271 272 266 266 268 269 272 276 278 286 295 301 304 303 299 297 297 300 311 332 344 345 346 350 352 353 353 351 345 339 333 332 346 26 53 54 67 77 83 91 98 101 99 95 92 89 88 87 87 87 86 84 82 79
236 238 238 239 242 244 247 249 251 255 259 259 257 256 256 257 260 266 271 273 273 272 272 272 274 275 274 273 272 270 269 270 269 268 268 266 263 265 269 272 277 284 291 299 303 301 299 297 298 299 306 326 337 339 339 341 342 343 343 336 327 316 309 309 324 45 59 87 119 122 124 127 127 123 114 107 103 99 97 94 92 91 87 82 77
235 236 236 238 241 244 248 252 255 256 256 256 256 257 258 259 261 264 266 270 272 271 272 274 275 274 274 272 268 265 265 265 265 267 269 267 264 262 264 268 274 280 285 289 291 295 297 296 295 294 293 304 324 331 330 326 325 329 335 336 329 316 304 300 301 305 293 258 246 221 203 194 187 176 163 153 142 134 127 118 110 105 94 77 59
234 235 235 236 240 242 243 247 251 253 252 252 253 255 256 258 261 263 263 266 270 271 271 272 273 273 271 268 264 262 261 261 261 262 264 266 266 263 262 263 267 271 276 279 280 282 284 284 286 288 288 292 303 311 311 311 311 316 324 329 328 324 316 309 303 292 275 257 253 246 233 226 225 223 218 211 204 196 193 187 178 179 192 203 244
234 235 236 238 240 242 243 244 247 249 250 250 250 251 253 255 257 259 261 263 266 269 270 271 272 270 267 263 260 260 260 260 260 260 262 264 265 264 262 260 261 263 265 267 270 271 270 268 268 272 276 280 283 286 291 296 301 303 308 314 318 319 322 323 313 291 275 262 253 253 254 247 239 237 237 235 231 227 226 221 220 233 239 235 250
235 236 238 240 241 244 245 245 245 246 247 246 246 248 250 252 253 254 256 259 262 264 268 270 268 266 265 262 259 260 261 261 260 260 261 262 263 264 263 261 261 262 262 261 262 264 267 267 264 263 265 267 269 272 277 284 290 292 294 298 303 308 311 316 312 295 283 277 263 256 257 257 256 254 250 248 244 240 238 236 243 265 276 265 267
237 238 240 241 241 242 244 243 242 242 244 245 246 248 249 250 250 250 252 256 258 258 259 260 260 260 261 259 258 259 260 259 257 257 258 259 260 261 261 262 262 263 263 262 262 264 268 270 267 265 267 268 267 269 272 276 282 287 287 284 287 293 295 296 296 287 279 277 276 269 260 256 258 258 257 258 253 247 251 255 254 266 279 274 272
240 241 242 243 243 243 244 245 244 245 246 248 250 251 250 249 248 249 251 254 254 250 248 252 255 257 257 254 253 255 255 253 253 253 254 255 256 257 260 261 261 262 263 263 263 264 267 268 267 267 270 270 269 270 273 275 278 282 284 281 278 280 280 281 284 283 278 272 268 267 261 254 258 260 258 258 258 256 262 266 261 260 266 265 269
242 242 243 244 245 246 246 247 248 249 250 251 252 252 251 249 248 247 248 251 250 244 242 245 248 251 253 253 250 250 251 251 251 252 252 252 253 255 257 258 258 259 260 260 261 263 264 265 265 265 266 266 267 270 274 278 279 279 282 282 278 274 273 274 278 280 280 274 265 261 259 257 260 261 255 254 260 265 269 272 276 280 279 274 275
243 243 244 244 246 247 248 248 249 250 250 251 252 251 249 249 247 244 245 249 249 242 237 239 243 247 252 253 250 247 248 251 252 254 254 253 253 254 254 254 255 256 257 257 258 261 262 263 263 263 263 263 266 270 274 278 279 279 280 282 281 276 272 271 273 275 276 274 268 264 264 263 262 262 261 262 266 271 272 275 282 287 287 284 281
243 244 244 245 246 247 248 248 248 249 248 249 249 248 245 244 244 243 246 249 248 243 238 238 243 247 250 250 248 246 247 249 251 254 255 254 254 254 253 253 252 254 256 257 257 257 259 260 261 262 263 262 265 269 272 274 276 277 278 279 281 280 276 272 271 271 272 272 272 271 274 276 277 277 279 283 286 286 283 279 276 279 284 287 285
243 243 244 245 245 245 246 247 246 246 246 246 247 245 243 241 242 246 250 249 247 246 244 242 245 247 247 245 245 246 246 247 250 252 253 254 254 253 253 252 251 252 255 257 256 255 255 257 260 263 264 262 261 264 268 270 271 272 274 275 276 278 277 275 273 271 269 270 270 271 273 277 281 283 285 288 291 293 291 289 284 278 277 280 283
243 243 244 244 244 244 245 246 245 245 245 245 246 245 243 243 245 250 252 250 247 247 246 245 246 246 244 242 243 245 247 250 252 252 252 253 254 253 253 252 251 251 253 254 255 254 254 255 257 261 264 263 261 261 262 265 267 268 269 270 271 272 274 275 275 274 273 273 272 272 272 274 276 278 280 281 282 283 285 286 287 284 280 278 279
242 242 243 244 244 244 245 245 246 246 245 245 246 245 245 246 248 249 249 248 247 246 245 246 247 246 244 243 243 245 248 251 254 254 254 254 255 255 255 255 254 253 252 253 254 253 253 254 256 259 263 264 263 261 260 260 263 265 267 267 267 268 269 271 273 273 274 275 276 276 276 275 276 276 277 277 278 278 279 279 280 282 282 281 281
241 242 242 243 243 244 244 245 245 246 245 245 246 246 246 247 247 247 245 245 245 243 243 245 246 245 246 246 245 246 249 252 254 255 254 255 255 256 257 258 257 256 254 254 254 254 253 254 257 260 263 265 265 263 261 260 260 261 264 265 265 266 266 267 268 270 271 273 275 275 276 276 276 276 277 277 276 276 277 277 278 278 278 279 280
241 241 241 242 242 243 244 244 244 245 245 245 245 246 246 245 245 245 244 243 242 240 240 242 244 245 246 248 249 249 250 251 253 254 254 254 255 257 259 259 259 258 256 255 255 255 255 255 256 259 263 265 266 265 264 262 262 261 262 262 263 263 264 264 266 267 268 270 272 273 274 275 275 276 277 277 277 276 276 276 277 277 277 277 278
242 242 242 242 242 242 243 243 244 244 244 244 245 245 245 245 244 244 243 242 241 240 240 240 242 244 245 247 249 251 252 252 253 254 254 255 256 258 260 261 260 259 258 257 257 257 257 256 256 258 261 264 266 266 266 266 266 265 265 263 261 261 261 262 263 264 266 267 269 271 272 273 274 274 275 276 276 276 275 275 275 276 276 277 277
242 242 242 242 243 243 243 243 244 244 244 244 244 244 245 244 244 243 243 241 240 240 240 240 241 242 243 244 246 249 252 253 254 255 255 256 257 258 259 260 260 260 259 259 258 258 258 257 256 257 259 262 265 267 268 269 269 269 268 266 263 261 260 260 260 261 263 265 266 268 270 271 272 273 273 274 275 276 275 275 275 275 275 275 276
242 242 242 242 243 243 243 244 244 244 244 243 244 244 244 244 243 243 242 241 239 239 239 239 240 240 241 242 244 247 250 252 253 254 255 256 256 257 258 259 260 260 259 259 259 258 258 258 257 257 258 260 263 266 269 270 271 270 269 267 265 262 260 259 258 259 260 262 263 265 267 268 269 270 271 273 274 275 276 275 275 275 275 275 275
243 242 242 243 243 243 243 243 244 244 244 244 244 244 243 243 243 242 242 241 240 239 238 239 239 240 240 242 244 246 247 249 250 251 252 253 254 255 256 257 259 259 260 260 259 259 258 258 258 258 259 261 264 266 268 269 270 270 269 268 265 263 260 258 257 257 258 259 260 262 264 266 268 269 270 271 273 274 275 275 275 275 275 275 275
243 243 243 243 243 243 243 243 243 243 244 244 244 244 244 243 243 242 242 241 240 239 238 238 239 239 240 242 243 244 245 246 248 248 250 251 252 254 255 257 258 259 260 261 261 261 260 259 259 259 260 262 265 267 268 268 268 268 268 267 266 264 261 258 257 256 257 257 258 259 261 263 265 267 269 271 272 273 274 274 274 274 274 274 274
243 243 243 243 243 243 243 243 243 243 243 243 243 243 244 243 243 242 242 242 241 240 239 239 239 240 240 242 243 244 245 245 246 247 249 250 252 253 255 256 257 258 259 260 261 262 262 262 262 261 262 263 265 266 267 267 267 267 267 266 265 264 262 260 258 257 257 256 257 257 259 260 263 266 269 271 272 273 273 274 274 274 275 275 275
242 242 243 243 243 243 243 243 243 243 243 243 244 244 244 244 244 243 243 243 242 241 240 240 240 240 241 242 243 244 245 245 246 246 247 249 250 252 253 254 255 256 257 258 259 260 261 262 263 263 264 264 264 264 265 265 265 265 265 265 265 264 263 261 259 258 257 257 257 258 258 260 262 265 268 269 270 271 273 274 275 275 275 275 275
243 243 243 243 243 244 244 244 244 244 245 245 244 244 244 244 244 245 244 244 243 243 242 241 241 242 242 243 243 244 245 246 247 248 248 249 250 251 252 253 253 254 255 256 256 257 258 259 260 261 262 262 263 263 262 262 263 263 263 264 264 264 263 262 261 260 260 260 260 260 261 262 263 265 267 269 269 270 272 274 275 276 276 276 276
244 244 244 244 244 244 244 244 245 245 245 246 246 246 246 246 246 245 245 245 245 244 244 243 243 243 243 244 244 245 246 247 248 249 250 251 252 252 253 253 253 254 254 253 253 254 255 256 257 258 259 260 260 261 261 261 261 261 262 262 262 262 262 262 261 261 261 261 261 262 263 264 265 267 268 270 270 271 272 273 275 276 277 277 278
245 245 245 245 245 244 244 244 245 245 245 246 246 247 247 247 247 247 246 246 246 246 245 245 244 244 244 244 245 246 246 247 248 249 250 251 252 253 254 254 255 255 255 254 253 252 252 253 254 255 256 257 258 258 259 259 259 260 261 262 262 262 262 262 262 262 262 262 262 263 264 265 266 267 268 269 270 271 271 272 273 275 277 278 279
246 246 246 246 246 246 246 245 245 245 245 246 246 247 247 248 248 248 248 248 247 247 247 247 246 246 245 245 246 246 247 248 248 249 250 251 251 252 253 254 254 254 255 255 254 253 253 252 252 252 253 254 254 255 256 256 257 258 259 260 261 262 263 263 263 263 263 263 263 264 264 265 266 266 267 267 268 269 270 270 271 273 275 277 278
248 248 248 247 247 247 247 247 246 246 246 246 246 247 247 247 248 248 249 249 249 249 249 249 248 248 248 247 247 247 248 248 249 250 250 251 251 251 252 253 253 253 254 254 254 254 254 253 253 253 253 253 254 254 254 254 255 256 256 257 258 259 259 260 260 261 261 262 262 263 264 265 265 266 266 266 267 267 268 268 269 270 272 274 276
248 249 249 249 249 249 249 249 248 247 247 247 247 247 247 247 248 248 249 249 250 250 250 250 250 250 250 250 249 249 249 249 250 250 251 251 251 251 251 252 252 253 254 254 254 255 255 255 254 254 254 254 254 255 255 254 254 255 255 256 256 257 258 259 259 259 260 260 261 262 263 264 264 265 265 265 266 266 266 267 268 269 271 273 274
248 248 249 249 250 251 251 251 250 249 249 248 248 248 248 248 248 249 249 249 250 250 251 251 251 251 251 251 251 251 251 251 251 251 251 252 252 252 252 252 252 252 253 253 254 255 255 256 256 257 257 257 257 257 257 256 256 256 256 256 256 257 258 259 260 261 262 262 263 263 264 264 264 265 265 265 265 266 266 267 268 270 271 273 273
248 248 248 249 249 250 251 252 252 252 251 250 250 249 249 249 250 250 250 250 250 251 251 251 251 251 252 252 252 252 252 253 253 253 253 253 253 253 253 253 253 253 253 253 254 254 255 255 256 257 257 258 258 259 259 259 259 259 259 259 259 259 259 260 262 263 264 265 265 266 266 266 266 266 266 267 267 268 268 269 270 270 271 272 273
248 249 249 249 249 250 250 251 252 252 252 252 252 251 251 251 251 251 251 251 251 251 251 251 251 252 252 252 252 253 253 254 254 254 254 255 255 255 255 255 255 255 255 255 255 255 255 255 256 256 257 257 258 259 259 259 260 260 261 261 261 262 262 263 263 264 264 265 266 266 267 267 267 268 268 268 268 269 269 270 270 271 271 271 272
248 249 249 250 250 250 250 250 250 251 251 252 252 252 252 252 251 251 251 251 252 252 252 252 252 252 252 253 253 253 254 255 255 255 255 255 256 256 256 257 257 257 257 257 257 257 257 257 257 257 258 258 258 259 259 260 260 261 261 262 262 263 263 264 264 264 265 265 266 266 266 266 267 267 268 268 268 269 269 269 270 270 270 271 271
247 249 249 250 250 251 251 252 252 252 252 252 252 252 252 252 252 252 252 252 252 253 253 253 253 254 254 254 254 254 255 255 255 255 255 255 256 256 257 257 258 258 258 258 259 259 259 259 259 259 259 260 260 260 260 261 261 261 262 262 263 263 264 264 264 265 265 265 266 266 266 267 267 267 268 268 268 268 269 269 269 270 270 270 270
247 248 249 250 250 251 252 252 253 253 253 253 253 253 253 253 253 253 253 253 254 254 254 255 255 255 255 256 256 256 256 256 256 257 257 256 257 257 258 258 258 258 259 259 259 260 260 260 260 261 261 261 262 262 262 262 263 263 263 263 264 264 264 265 265 265 266 266 266 267 267 268 268 268 268 269 269 269 269 270 270 270 270 271 271
247 248 249 250 251 251 252 252 253 253 254 254 254 254 254 254 254 254 254 254 254 255 255 255 256 256 256 257 257 258 258 258 258 258 258 258 258 258 258 259 259 259 259 259 260 260 260 261 261 261 262 262 263 263 263 264 264 264 264 265 265 265 265 266 266 266 267 267 267 268 268 268 269 269 269 269 270 270 270 270 271 271 271 271 271
246 247 249 250 251 252 252 252 253 253 254 254 255 255 255 256 256 256 256 256 256 256 256 256 256 257 257 258 258 259 259 260 260 260 260 260 261 261 261 261 260 260 260 260 261 261 261 262 262 262 263 263 263 264 264 265 265 265 265 266 266 266 266 267 267 267 268 268 268 268 269 269 269 270 270 270 270 271 271 271 271 271 271 271 272
244 246 247 249 250 252 252 253 254 254 254 255 255 255 256 256 257 257 257 258 258 258 258 258 258 258 258 259 259 260 260 261 261 262 262 262 262 263 263 263 263 263 263 263 263 263 263 263 264 264 264 264 265 265 265 265 265 266 266 266 266 267 267 267 268 268 268 269 269 269 270 270 270 270 271 271 271 271 272 272 272 272 272 272 272
242 244 246 248 249 251 252 253 254 255 256 256 256 257 257 257 258 258 258 259 259 259 260 260 260 260 260 260 260 261 261 261 262 262 262 263 263 263 264 264 264 265 265 265 265 265 265 265 266 266 266 266 266 266 266 266 267 267 267 267 267 267 268 268 268 268 269 269 270 270 270 271 271 272 272 272 272 272 273 273 273 273 273 273 273
242 243 244 246 248 250 251 253 254 255 256 257 258 259 259 260 260 260 261 260 260 260 260 260 261 261 262 262 262 263 263 263 263 263 263 263 263 264 264 264 265 265 265 265 266 266 266 266 267 267 267 267 267 267 267 267 267 267 268 268 268 268 269 269 269 269 270 270 271 271 271 272 272 272 273 273 273 273 273 273 273 274 274 274 274
Height
11021 11021 11021 11021 11021 11021 11021 11021 11021 11021 11021 11020 11020 11020 11020 11020 11020 11020 11020 11020 11020 11020 11019 11019 11018 11018 11018 11017 11016 11015 11015 11015 11014 11014 11013 11012 11012 11011 11011 11010 11010 11009 11009 11008 11008 11007 11007 11006 11006 11005 11005 11004 11003 11003 11002 11001 11001 11000 10999 10998 10997 10996 10995 10994 10993 10992 10991 10990 10989 10989 10988 10986 10985 10984 10983 10982 10981 10979 10978 10977 10976 10976 10976 10975 10974
11019 11020 11021 11021 11021 11021 11021 11021 11021 11021 11021 11021 11021 11021 11021 11021 11021 11021 11021 11021 11021 11020 11020 11020 11019 11019 11019 11019 11018 11017 11017 11016 11016 11015 11015 11014 11013 11013 11012 11012 11011 11011 11010 11009 11009 11008 11008 11007 11007 11006 11006 11005 11005 11004 11004 11003 11002 11002 11001 11000 10999 10998 10997 10996 10995 10994 10993 10992 10991 10990 10989 10988 10987 10986 10985 10983 10982 10980 10979 10978 10978 10979 10979 10977 10977
11018 11018 11019 11020 11020 11021 11021 11022 11021 11021 11021 11021 11021 11021 11021 11021 11021 11021 11021 11022 11022 11021 11021 11020 11020 11020 11020 11020 11020 11019 11018 11018 11017 11016 11016 11015 11015 11014 11014 11013 11013 11012 11011 11011 11010 11010 11009 11008 11008 11007 11006 11006 11005 11005 11004 11004 11003 11003 11002 11001 11001 11000 10999 10998 10997 10996 10995 10994 10993 10992 10991 10990 10989 10988 10986 10985 10984 10983 10981 10980 10980 10980 10980 10979 10980
11016 11017 11017 11018 11019 11020 11020 11021 11021 11021 11021 11021 11021 11021 11021 11021 11022 11022 11022 11022 11022 11022 11021 11021 11021 11021 11020 11021 11021 11020 11020 11019 11019 11018 11017 11017 11016 11016 11015 11015 11014 11013 11013 11012 11011 11011 11010 11009 11008 11008 11007 11007 11006 11006 11005 11004 11004 11003 11003 11002 11001 11001 11000 10999 10998 10997 10996 10995 10994 10993 10992 10991 10990 10989 10988 10987 10986 10985 10984 10983 10982 10981 10981 10981 10981
11013 11014 11015 11016 11017 11018 11019 11020 11021 11021 11021 11021 11022 11021 11021 11021 11021 11022 11022 11022 11022 11022 11022 11021 11021 11021 11021 11021 11021 11021 11021 11020 11020 11019 11019 11018 11017 11017 11016 11016 11015 11015 11014 11013 11012 11012 11011 11010 11009 11009 11008 11007 11007 11006 11006 11006 11005 11004 11003 11003 11002 11001 11000 10999 10999 10998 10997 10996 10995 10994 10993 10992 10992 10991 10990 10989 10988 10988 10987 10986 10985 10985 10984 10984 10983
11009 11011 11012 11014 11015 11016 11017 11018 11019 11020 11020 11020 11021 11021 11021 11021 11021 11021 11021 11021 11022 11022 11021 11021 11021 11021 11021 11021 11021 11021 11021 11020 11020 11020 11020 11019 11019 11018 11017 11016 11016 11015 11015 11014 11013 11012 11012 11011 11010 11010 11009 11008 11008 11007 11007 11007 11006 11006 11005 11004 11003 11002 11001 11000 11000 10999 10998 10997 10996 10996 10995 10994 10993 10993 10992 10991 10991 10990 10989 10989 10988 10988 10988 10987 10987
11006 11008 11009 11011 11012 11013 11015 11016 11016 11017 11018 11019 11019 11019 11019 11020 11020 11021 11020 11021 11021 11021 11021 11021 11021 11021 11021 11021 11021 11021 11021 11020 11020 11020 11020 11019 11019 11018 11018 11017 11017 11016 11015 11015 11014 11013 11013 11012 11011 11010 11010 11009 11008 11008 11007 11007 11007 11006 11006 11005 11004 11003 11002 11002 11001 11000 11000 10999 10998 10998 10997 10996 10995 10995 10994 10994 10993 10993 10992 10992 10991 10991 10991 10991 10990
11003 11004 11006 11008 11009 11011 11012 11013 11014 11015 11016 11017 11017 11017 11018 11018 11019 11019 11020 11020 11020 11020 11020 11020 11020 11020 11020 11020 11020 11020 11021 11020 11020 11020 11020 11019 11019 11018 11018 11017 11017 11016 11016 11015 11015 11014 11014 11013 11012 11011 11010 11010 11009 11008 11008 11007 11007 11007 11006 11006 11005 11004 11004 11003 11003 11002 11001 11001 11000 11000 10999 10998 10998 10997 10996 10996 10995 10995 10995 10994 10994 10994 10994 10993 10993
10999 11001 11003 11005 11006 11008 11009 11010 11011 11012 11013 11014 11015 11016 11016 11016 11017 11017 11018 11018 11019 11019 11019 11020 11020 11020 11019 11020 11020 11020 11020 11020 11020 11020 11020 11019 11018 11018 11018 11017 11017 11016 11015 11015 11015 11014 11014 11013 11013 11012 11011 11011 11010 11009 11008 11007 11007 11007 11007 11006 11006 11005 11005 11004 11004 11003 11003 11002 11002 11001 11001 11000 10999 10999 10998 10998 10997 10997 10997 10997 10997 10996 10996 10996 10996
10996 10998 11000 11002 11004 11005 11006 11007 11008 11009 11010 11011 11012 11013 11014 11014 11015 11015 11016 11016 11017 11017 11017 11018 11018 11018 11019 11019 11019 11019 11019 11019 11019 11019 11019 11019 11018 11018 11018 11017 11016 11016 11015 11015 11014 11014 11014 11013 11013 11012 11012 11011 11010 11010 11009 11008 11007 11007 11006 11006 11006 11006 11006 11005 11005 11004 11004 11003 11003 11002 11002 11002 11001 11000 11000 11000 10999 10999 10999 10999 10999 10998 10998 10998 10999
10993 10995 10997 10999 11001 11002 11003 11004 11006 11007 11008 11009 11010 11011 11011 11012 11012 11012 11013 11014 11014 11014 11015 11016 11016 11017 11018 11018 11018 11018 11017 11018 11018 11018 11018 11018 11017 11017 11017 11016 11015 11015 11015 11014 11013 11013 11013 11012 11012 11012 11012 11011 11011 11010 11010 11009 11008 11007 11006 11006 11006 11005 11005 11005 11005 11005 11005 11004 11004 11003 11003 11003 11002 11002 11001 11001 11001 11000 11000 11000 11000 11000 11000 11000 11000
10989 10992 10994 10996 10997 10999 11000 11002 11003 11005 11005 11007 11008 11009 11008 11008 11008 11009 11010 11011 11011 11012 11013 11014 11015 11016 11016 11016 11017 11016 11016 11016 11017 11016 11016 11016 11016 11016 11016 11015 11015 11014 11014 11013 11013 11012 11012 11012 11011 11011 11011 11011 11010 11010 11010 11009 11009 11007 11007 11006 11006 11005 11005 11005 11005 11005 11005 11005 11004 11004 11004 11003 11003 11003 11002 11002 11002 11001 11001 11001 11001 11001 11001 11001 11002
10984 10987 10990 10992 10994 10996 10999 11000 11002 11003 11004 11005 11006 11005 11004 11004 11004 11006 11007 11008 11009 11010 11011 11012 11013 11014 11014 11014 11015 11014 11013 11015 11015 11014 11014 11014 11014 11014 11014 11014 11014 11014 11013 11013 11012 11012 11011 11011 11011 11010 11010 11010 11010 11010 11010 11009 11009 11008 11007 11006 11006 11005 11005 11005 11005 11005 11005 11005 11005 11004 11004 11004 11003 11003 11003 11002 11002 11002 11002 11001 11001 11001 11002 11002 11003
10979 10982 10985 10988 10990 10993 10998 10999 10999 11000 11002 11003 11002 11000 10999 10999 11000 11002 11004 11004 11005 11007 11008 11009 11010 11011 11011 11011 11011 11011 11011 11012 11012 11012 11012 11012 11012 11012 11012 11012 11012 11012 11012 11012 11011 11011 11010 11010 11009 11009 11009 11009 11009 11010 11010 11010 11009 11009 11008 11007 11006 11005 11005 11005 11005 11005 11005 11004 11004 11004 11004 11003 11003 11003 11003 11003 11002 11002 11002 11001 11001 11002 11002 11002 11003
10974 10977 10979 10982 10984 10988 10993 10995 10994 10994 10996 10996 10996 10994 10993 10994 10996 10998 11000 11001 11002 11004 11006 11006 11007 11007 11007 11007 11007 11006 11007 11009 11009 11009 11009 11009 11009 11010 11010 11010 11010 11010 11011 11011 11010 11010 11009 11008 11008 11008 11007 11007 11008 11008 11008 11009 11009 11008 11007 11007 11006 11005 11005 11004 11004 11004 11004 11003 11003 11003 11002 11002 11002 11002 11002 11002 11002 11002 11002 11002 11001 11001 11001 11001 11002
10967 10970 10972 10975 10978 10981 10984 10986 10986 10986 10986 10986 10988 10988 10988 10990 10992 10994 10996 10998 11000 11003 11004 11004 11003 11001 11001 11002 11001 11001 11002 11005 11005 11005 11006 11006 11007 11007 11007 11007 11007 11007 11007 11008 11008 11008 11007 11006 11006 11006 11005 11006 11006 11006 11006 11006 11007 11006 11006 11006 11005 11005 11004 11004 11003 11003 11003 11002 11002 11001 11001 11001 11001 11001 11001 11001 11002 11002 11002 11001 11001 11001 11001 11001 11001
10961 10964 10965 10969 10972 10974 10975 10976 10976 10977 10977 10978 10980 10981 10983 10985 10987 10989 10992 10994 10998 11002 11003 11002 10998 10994 10995 10998 10997 10996 10999 11001 11001 11001 11002 11002 11003 11003 11003 11003 11003 11003 11004 11004 11004 11005 11004 11004 11004 11004 11004 11004 11004 11004 11004 11004 11004 11004 11005 11005 11004 11004 11003 11003 11002 11002 11002 11002 11001 11001 11000 11000 11000 11000 11000 11000 11000 11001 11001 11001 11001 11000 11001 11001 11001
10954 10956 10958 10961 10965 10967 10968 10967 10968 10970 10970 10971 10974 10977 10977 10979 10980 10984 10987 10989 10994 10999 11001 11000 10994 10989 10991 10994 10993 10991 10995 10997 10996 10996 10997 10998 10999 10999 10999 10999 10999 11000 11000 11000 11001 11001 11001 11002 11002 11002 11002 11002 11002 11002 11001 11001 11002 11002 11003 11003 11003 11003 11002 11001 11001 11001 11000 11000 11000 10999 10999 10998 10998 10997 10997 10998 10998 10999 11000 11000 11000 11000 10999 10999 10999
10945 10947 10949 10952 10956 10959 10959 10959 10961 10963 10965 10966 10969 10970 10971 10971 10973 10978 10982 10984 10989 10994 10997 10994 10989 10984 10986 10989 10988 10987 10990 10991 10991 10991 10992 10993 10994 10994 10994 10995 10996 10996 10996 10996 10996 10996 10996 10998 10998 10998 10999 10999 10999 10999 10998 10999 10999 11000 11000 11000 11000 11000 11000 11000 10999 10999 10998 10998 10997 10997 10996 10996 10995 10995 10995 10995 10996 10997 10998 10998 10998 10998 10997 10996 10996
10935 10938 10941 10944 10947 10948 10950 10951 10954 10957 10959 10961 10962 10963 10964 10965 10967 10972 10976 10978 10982 10986 10989 10987 10983 10980 10981 10983 10983 10983 10984 10984 10985 10986 10987 10988 10989 10989 10990 10990 10991 10992 10991 10990 10990 10991 10991 10993 10993 10993 10995 10995 10995 10995 10995 10996 10996 10997 10997 10997 10998 10998 10998 10998 10998 10998 10997 10996 10995 10995 10994 10993 10992 10992 10993 10994 10993 10994 10995 10995 10996 10995 10994 10993 10993
10926 10929 10932 10936 10938 10939 10941 10944 10946 10949 10952 10954 10955 10956 10957 10958 10961 10965 10969 10972 10974 10977 10978 10978 10976 10975 10976 10977 10977 10978 10978 10978 10979 10980 10981 10982 10983 10984 10985 10985 10986 10987 10985 10984 10985 10986 10986 10987 10987 10989 10991 10991 10990 10991 10991 10992 10993 10993 10994 10994 10995 10995 10995 10996 10996 10996 10996 10995 10994 10993 10992 10991 10990 10990 10991 10991 10991 10991 10992 10993 10994 10993 10991 10989 10989
10917 10920 10924 10928 10931 10931 10932 10934 10937 10940 10944 10946 10946 10948 10949 10952 10954 10958 10962 10964 10965 10967 10968 10969 10969 10969 10970 10970 10970 10971 10972 10972 10973 10973 10975 10976 10977 10978 10979 10980 10981 10981 10979 10980 10981 10981 10980 10980 10981 10984 10986 10987 10986 10986 10987 10988 10989 10989 10990 10991 10991 10992 10992 10993 10993 10993 10993 10993 10993 10992 10991 10989 10988 10988 10989 10989 10989 10989 10989 10990 10991 10990 10988 10986 10985
10907 10911 10914 10918 10921 10920 10920 10922 10927 10931 10935 10936 10937 10939 10943 10945 10947 10950 10955 10956 10957 10958 10960 10960 10960 10962 10963 10963 10963 10964 10965 10966 10967 10967 10968 10969 10970 10971 10973 10974 10974 10975 10975 10975 10976 10976 10975 10975 10975 10977 10980 10982 10982 10982 10982 10982 10984 10985 10985 10986 10986 10987 10988 10989 10989 10990 10990 10990 10990 10990 10989 10987 10986 10986 10986 10986 10986 10986 10986 10987 10987 10986 10986 10984 10982
10896 10900 10903 10906 10909 10909 10908 10911 10916 10921 10925 10926 10928 10931 10935 10937 10939 10942 10946 10949 10950 10951 10952 10952 10952 10953 10954 10955 10956 10957 10958 10959 10960 10960 10961 10962 10963 10964 10965 10966 10968 10969 10969 10970 10970 10971 10970 10970 10970 10971 10973 10975 10976 10976 10977 10978 10978 10979 10980 10981 10981 10982 10983 10984 10984 10985 10986 10986 10986 10986 10986 10985 10984 10983 10983 10983 10983 10983 10983 10983 10983 10983 10982 10981 10980
10884 10889 10893 10896 10898 10900 10900 10902 10907 10912 10915 10917 10919 10922 10925 10927 10931 10934 10937 10940 10943 10943 10943 10943 10944 10944 10945 10946 10948 10950 10950 10951 10952 10953 10955 10955 10957 10958 10958 10959 10961 10962 10963 10964 10964 10965 10965 10964 10965 10966 10967 10968 10969 10970 10971 10972 10973 10974 10975 10975 10976 10976 10977 10978 10979 10979 10980 10981 10981 10981 10981 10981 10980 10979 10979 10979 10979 10979 10979 10978 10978 10978 10978 10976 10976
10873 10877 10881 10884 10887 10888 10890 10894 10899 10902 10905 10908 10910 10912 10914 10917 10922 10925 10928 10931 10933 10933 10934 10936 10936 10936 10936 10937 10939 10941 10942 10943 10945 10947 10948 10948 10949 10950 10951 10952 10953 10955 10956 10957 10957 10958 10958 10959 10959 10960 10961 10962 10963 10963 10964 10966 10967 10968 10969 10969 10969 10969 10970 10972 10972 10973 10973 10974 10975 10975 10975 10975 10975 10974 10974 10975 10975 10975 10974 10974 10973 10973 10973 10972 10971
10861 10865 10868 10872 10874 10876 10879 10883 10888 10891 10895 10898 10900 10901 10904 10908 10912 10915 10918 10920 10922 10923 10926 10928 10928 10929 10929 10929 10930 10932 10934 10936 10938 10939 10940 10940 10941 10942 10943 10944 10946 10947 10948 10949 10950 10951 10951 10952 10952 10953 10954 10955 10956 10957 10957 10959 10960 10961 10962 10963 10963 10963 10963 10964 10965 10965 10966 10966 10967 10967 10968 10968 10968 10968 10968 10969 10969 10969 10969 10969 10969 10968 10968 10968 10967
10849 10853 10857 10860 10862 10865 10868 10872 10876 10880 10884 10888 10890 10890 10893 10898 10902 10903 10907 10910 10912 10914 10916 10919 10920 10921 10922 10922 10922 10923 10925 10928 10930 10931 10932 10932 10933 10934 10935 10936 10937 10938 10940 10941 10942 10943 10943 10944 10944 10945 10946 10947 10948 10949 10950 10951 10952 10953 10954 10956 10956 10955 10956 10957 10957 10958 10958 10958 10958 10959 10959 10960 10960 10960 10960 10961 10962 10962 10963 10963 10963 10962 10962 10962 10961
10836 10840 10845 10848 10851 10854 10857 10860 10865 10869 10872 10875 10878 10880 10883 10887 10890 10892 10896 10900 10903 10905 10907 10909 10911 10911 10913 10914 10915 10915 10916 10918 10920 10922 10923 10924 10925 10925 10926 10927 10928 10929 10931 10932 10934 10935 10935 10936 10936 10937 10938 10939 10940 10941 10942 10943 10944 10945 10946 10947 10948 10948 10948 10948 10949 10949 10950 10950 10950 10950 10950 10951 10951 10951 10952 10952 10953 10954 10954 10955 10955 10955 10955 10955 10954
10823 10827 10832 10835 10838 10842 10846 10849 10852 10857 10860 10863 10867 10869 10872 10876 10878 10881 10885 10889 10892 10894 10896 10898 10900 10901 10903 10904 10906 10907 10908 10909 10911 10912 10913 10915 10916 10916 10917 10918 10919 10920 10921 10923 10924 10926 10927 10927 10928 10928 10929 10930 10931 10933 10934 10934 10935 10936 10937 10938 10939 10939 10939 10939 10940 10941 10941 10941 10941 10941 10941 10942 10942 10942 10943 10943 10943 10944 10945 10945 10946 10946 10946 10946 10946
10810 10814 10818 10822 10826 10830 10834 10837 10841 10845 10848 10852 10855 10858 10861 10865 10867 10870 10873 10877 10880 10883 10885 10887 10889 10891 10892 10894 10896 10897 10898 10899 10901 10902 10904 10905 10906 10907 10908 10909 10909 10910 10911 10912 10914 10915 10917 10918 10919 10919 10920 10920 10921 10923 10925 10926 10926 10927 10927 10928 10929 10930 10930 10930 10930 10931 10931 10931 10931 10931 10931 10931 10932 10932 10933 10933 10933 10934 10935 10935 10936 10936 10937 10937 10937
10797 10801 10805 10809 10814 10818 10822 10825 10829 10832 10836 10839 10843 10846 10849 10853 10856 10859 10862 10865 10868 10871 10874 10876 10878 10879 10881 10883 10885 10887 10888 10889 10891 10892 10894 10895 10896 10897 10898 10899 10900 10901 10901 10901 10902 10903 10905 10907 10908 10909 10910 10910 10911 10912 10914 10915 10916 10917 10917 10918 10918 10919 10920 10920 10920 10920 10921 10921 10921 10921 10921 10921 10921 10922 10922 10923 10923 10923 10924 10925 10925 10926 10926 10926 10927
10784 10787 10790 10795 10800 10804 10808 10812 10815 10819 10823 10827 10830 10834 10837 10840 10843 10846 10849 10853 10856 10859 10862 10864 10866 10868 10870 10872 10874 10876 10877 10879 10880 10881 10883 10884 10885 10886 10887 10888 10890 10891 10891 10892 10892 10892 10893 10895 10896 10898 10899 10901 10901 10901 10902 10903 10904 10905 10906 10906 10907 10908 10909 10909 10909 10909 10909 10910 10909 10909 10909 10910 10910 10911 10911 10912 10912 10913 10913 10914 10915 10915 10915 10916 10916
10771 10774 10777 10782 10786 10790 10794 10799 10802 10806 10810 10814 10818 10821 10824 10827 10830 10833 10837 10840 10843 10846 10849 10852 10854 10856 10858 10860 10863 10865 10866 10868 10869 10870 10872 10873 10874 10875 10876 10877 10878 10879 10880 10881 10882 10882 10883 10883 10884 10885 10886 10888 10890 10891 10891 10892 10892 10893 10893 10894 10894 10895 10896 10896 10896 10896 10897 10897 10897 10897 10897 10897 10898 10898 10899 10901 10901 10902 10902 10903 10903 10904 10904 10904 10904
10758 10762 10766 10770 10774 10778 10782 10786 10790 10794 10798 10802 10805 10809 10812 10815 10818 10822 10825 10828 10831 10834 10837 10840 10843 10845 10847 10848 10851 10853 10854 10855 10857 10858 10860 10861 10863 10865 10866 10867 10867 10868 10869 10869 10870 10871 10871 10872 10872 10873 10874 10875 10876 10878 10879 10880 10880 10880 10880 10881 10881 10882 10883 10883 10883 10883 10883 10884 10884 10884 10884 10884 10884 10884 10885 10887 10888 10888 10889 10890 10890 10891 10891 10892 10892
10743 10748 10753 10758 10762 10766 10770 10774 10779 10783 10786 10790 10794 10797 10800 10803 10807 10810 10813 10816 10819 10821 10824 10827 10830 10832 10834 10836 10838 10840 10841 10843 10844 10845 10847 10849 10851 10852 10854 10855 10856 10857 10858 10858 10858 10858 10859 10860 10860 10861 10862 10862 10863 10864 10865 10866 10867 10867 10867 10867 10868 10868 10869 10869 10869 10869 10869 10870 10870 10870 10869 10869 10869 10869 10869 10870 10871 10872 10873 10874 10874 10875 10876 10877 10877
10729 10734 10739 10743 10748 10753 10757 10762 10767 10771 10774 10778 10782 10785 10787 10791 10794 10797 10800 10803 10805 10808 10810 10813 10816 10819 10821 10823 10825 10827 10828 10830 10831 10832 10834 10836 10838 10839 10841 10842 10843 10845 10846 10846 10846 10847 10848 10848 10849 10849 10849 10850 10850 10851 10852 10853 10853 10854 10854 10854 10854 10855 10855 10855 10855 10855 10854 10855 10855 10855 10854 10854 10854 10853 10853 10854 10854 10856 10857 10857 10857 10857 10858 10859 10860
10714 10719 10724 10729 10734 10739 10743 10749 10755 10759 10762 10766 10769 10771 10774 10778 10781 10784 10787 10789 10791 10794 10797 10800 10803 10806 10807 10810 10812 10814 10815 10816 10817 10819 10820 10822 10824 10826 10827 10828 10830 10831 10832 10832 10832 10833 10835 10836 10836 10836 10836 10837 10837 10837 10838 10839 10839 10840 10840 10840 10840 10841 10841 10841 10841 10841 10840 10840 10840 10840 10839 10838 10838 10838 10838 10838 10839 10840 10841 10840 10840 10841 10841 10842 10843
10700 10704 10709 10715 10720 10725 10729 10735 10741 10746 10750 10754 10756 10759 10762 10765 10768 10771 10774 10776 10778 10781 10783 10786 10789 10792 10794 10796 10798 10800 10801 10802 10804 10805 10806 10808 10810 10811 10812 10814 10815 10816 10817 10817 10818 10819 10820 10822 10822 10822 10822 10823 10823 10823 10823 10824 10824 10825 10825 10825 10826 10826 10826 10826 10826 10825 10825 10825 10825 10825 10824 10823 10822 10821 10822 10823 10824 10824 10824 10824 10824 10825 10826 10826 10826
10686 10690 10695 10700 10705 10710 10715 10721 10727 10733 10737 10741 10743 10746 10749 10752 10755 10758 10760 10762 10765 10767 10770 10773 10775 10778 10780 10782 10784 10786 10787 10788 10789 10791 10792 10793 10795 10796 10797 10798 10800 10801 10801 10802 10802 10803 10804 10806 10806 10806 10806 10806 10807 10807 10808 10808 10808 10808 10808 10808 10809 10809 10809 10809 10809 10808 10808 10808 10807 10807 10806 10806 10805 10804 10805 10806 10807 10806 10806 10806 10807 10807 10807 10808 10809
10672 10677 10681 10686 10690 10695 10700 10705 10712 10718 10723 10727 10729 10732 10736 10739 10742 10745 10747 10749 10752 10754 10756 10759 10761 10763 10766 10768 10769 10771 10773 10774 10775 10776 10777 10778 10779 10780 10781 10782 10783 10784 10785 10785 10786 10787 10789 10789 10789 10788 10788 10789 10790 10790 10791 10791 10790 10790 10790 10791 10791 10791 10791 10791 10790 10790 10789 10788 10787 10787 10788 10788 10787 10785 10785 10786 10787 10787 10787 10788 10788 10788 10788 10788 10789
10657 10663 10668 10672 10677 10682 10686 10691 10696 10702 10707 10712 10715 10719 10722 10725 10728 10731 10733 10736 10739 10741 10743 10745 10747 10749 10751 10753 10754 10756 10758 10759 10760 10761 10761 10762 10764 10765 10766 10767 10767 10768 10768 10768 10769 10771 10772 10772 10771 10771 10771 10771 10772 10772 10772 10772 10772 10772 10772 10772 10773 10773 10773 10773 10773 10771 10769 10767 10767 10769 10770 10769 10767 10765 10765 10765 10766 10767 10767 10768 10768 10768 10768 10769 10769
10642 10648 10653 10658 10664 10669 10674 10678 10682 10687 10691 10695 10699 10703 10707 10710 10713 10716 10719 10722 10724 10727 10729 10731 10733 10734 10737 10739 10740 10741 10742 10743 10744 10745 10746 10747 10748 10749 10750 10750 10751 10751 10751 10751 10753 10754 10755 10754 10753 10753 10753 10754 10754 10753 10753 10753 10753 10753 10753 10753 10753 10754 10754 10754 10753 10750 10747 10747 10749 10750 10750 10748 10746 10745 10745 10745 10745 10746 10746 10746 10746 10746 10747 10747 10747
10628 10633 10639 10644 10649 10654 10659 10664 10669 10673 10676 10679 10683 10687 10691 10694 10697 10701 10703 10706 10708 10711 10713 10715 10717 10719 10721 10723 10726 10727 10728 10728 10729 10730 10730 10731 10732 10733 10733 10733 10733 10733 10734 10735 10736 10736 10736 10736 10735 10735 10735 10735 10735 10735 10734 10734 10734 10734 10734 10733 10734 10734 10734 10732 10730 10728 10727 10728 10729 10729 10728 10727 10726 10725 10724 10724 10724 10725 10725 10725 10725 10725 10724 10724 10725
10615 10619 10625 10631 10635 10640 10644 10649 10654 10657 10661 10664 10668 10671 10675 10678 10682 10685 10688 10690 10693 10695 10697 10699 10701 10703 10704 10706 10708 10710 10711 10713 10713 10714 10715 10715 10716 10716 10717 10717 10716 10715 10716 10717 10717 10717 10717 10716 10716 10716 10716 10715 10715 10715 10714 10714 10714 10714 10713 10713 10714 10714 10712 10709 10708 10708 10709 10709 10708 10706 10706 10705 10705 10704 10703 10703 10702 10703 10703 10703 10703 10703 10702 10702 10702
10602 10605 10609 10615 10621 10625 10630 10634 10638 10641 10645 10648 10652 10656 10659 10663 10666 10669 10672 10675 10678 10680 10682 10684 10686 10687 10688 10689 10690 10692 10694 10696 10697 10698 10698 10699 10699 10699 10699 10699 10699 10698 10698 10698 10698 10698 10698 10697 10697 10696 10696 10696 10695 10695 10694 10693 10693 10692 10692 10693 10694 10693 10689 10687 10687 10688 10688 10687 10686 10685 10685 10684 10683 10682 10681 10680 10680 10680 10680 10680 10680 10680 10679 10679 10678
10590 10592 10595 10600 10605 10610 10615 10619 10623 10626 10629 10633 10637 10640 10644 10647 10650 10653 10656 10659 10661 10664 10667 10669 10670 10671 10672 10673 10673 10675 10676 10678 10679 10681 10681 10681 10682 10682 10682 10681 10681 10681 10681 10681 10680 10679 10679 10679 10678 10677 10677 10676 10675 10675 10674 10673 10672 10671 10670 10671 10672 10670 10666 10665 10665 10666 10666 10665 10664 10663 10663 10662 10661 10660 10659 10658 10657 10657 10657 10656 10656 10656 10656 10655 10654
10578 10580 10582 10585 10589 10594 10599 10604 10608 10612 10615 10618 10621 10625 10628 10631 10635 10637 10640 10643 10645 10648 10650 10652 10654 10655 10656 10657 10658 10659 10659 10660 10662 10663 10663 10664 10664 10664 10664 10664 10663 10663 10663 10663 10662 10661 10661 10660 10659 10659 10658 10657 10656 10655 10654 10652 10651 10649 10648 10648 10648 10647 10644 10643 10643 10643 10643 10643 10642 10641 10640 10640 10639 10638 10636 10635 10634 10633 10633 10632 10632 10632 10632 10630 10629
10566 10568 10570 10573 10576 10579 10583 10588 10592 10597 10601 10604 10607 10610 10614 10616 10619 10622 10625 10627 10630 10632 10634 10636 10638 10639 10641 10642 10643 10643 10643 10644 10645 10645 10646 10646 10646 10646 10646 10646 10645 10644 10645 10645 10644 10643 10643 10642 10641 10640 10639 10638 10637 10635 10633 10631 10630 10627 10626 10625 10625 10624 10623 10622 10622 10621 10621 10620 10619 10618 10617 10616 10615 10614 10613 10612 10610 10609 10609 10608 10607 10607 10606 10605 10604
10554 10557 10559 10561 10564 10567 10570 10574 10577 10581 10585 10589 10592 10595 10599 10601 10604 10608 10610 10613 10615 10617 10618 10620 10622 10623 10625 10626 10627 10627 10628 10628 10629 10629 10629 10630 10629 10629 10629 10628 10628 10627 10627 10626 10625 10625 10624 10623 10622 10621 10619 10617 10616 10614 10612 10610 10608 10606 10604 10603 10603 10602 10601 10601 10601 10600 10599 10598 10597 10595 10594 10593 10592 10590 10589 10588 10586 10585 10584 10582 10581 10580 10579 10578 10578
10543 10546 10549 10551 10554 10556 10558 10561 10564 10567 10571 10574 10577 10580 10583 10586 10588 10591 10593 10596 10599 10601 10603 10605 10607 10608 10609 10610 10611 10612 10612 10612 10612 10613 10613 10613 10612 10612 10612 10611 10611 10610 10609 10608 10607 10607 10606 10605 10603 10601 10599 10597 10595 10592 10590 10589 10587 10584 10583 10582 10581 10580 10580 10580 10580 10579 10578 10577 10576 10574 10573 10571 10569 10566 10564 10562 10560 10558 10557 10556 10555 10554 10553 10553 10553